EN

Hourly Weather Amarpur

Today, 28 November, Saturday

Time Temperature Precipitation Wind Pressure Humidity
00:00 +19°C° 0 mm 2 mps 758 mmHg 62%
01:00 +19°C° 0 mm 2 mps 757 mmHg 62%
02:00 +19°C° 0 mm 2 mps 757 mmHg 63%
03:00 +18°C° 0 mm 2 mps 756 mmHg 64%
04:00 +18°C° 0 mm 2 mps 756 mmHg 66%
05:00 +18°C° 0 mm 2 mps 756 mmHg 69%
06:00 +17°C° 0 mm 2 mps 757 mmHg 66%
07:00 +19°C° 0 mm 2 mps 757 mmHg 62%
08:00 +21°C° 0 mm 3 mps 758 mmHg 57%
09:00 +22°C° 0 mm 3 mps 758 mmHg 52%
10:00 +25°C° 0 mm 3 mps 758 mmHg 47%
11:00 +27°C° 0 mm 4 mps 758 mmHg 41%
12:00 +29°C° 0 mm 4 mps 757 mmHg 35%
13:00 +30°C° 0 mm 4 mps 757 mmHg 32%
14:00 +30°C° 0 mm 4 mps 756 mmHg 30%
15:00 +30°C° 0 mm 4 mps 755 mmHg 28%
16:00 +28°C° 0 mm 3 mps 755 mmHg 31%
17:00 +27°C° 0 mm 3 mps 755 mmHg 34%
18:00 +25°C° 0 mm 2 mps 755 mmHg 37%
19:00 +24°C° 0 mm 2 mps 755 mmHg 38%
20:00 +23°C° 0 mm 2 mps 756 mmHg 39%
21:00 +21°C° 0 mm 2 mps 756 mmHg 40%
22:00 +22°C° 0 mm 1 mps 756 mmHg 41%
23:00 +21°C° 0 mm 1 mps 757 mmHg 42%

Tomorrow, 29 November, Sunday

Time Temperature Precipitation Wind Pressure Humidity
00:00 +21°C° 0 mm 1 mps 757 mmHg 43%
01:00 +20°C° 0 mm 1 mps 757 mmHg 44%
02:00 +20°C° 0 mm 1 mps 756 mmHg 45%
03:00 +19°C° 0 mm 1 mps 756 mmHg 47%
04:00 +18°C° 0 mm 2 mps 756 mmHg 48%
05:00 +17°C° 0 mm 2 mps 756 mmHg 49%
06:00 +17°C° 0 mm 2 mps 756 mmHg 50%
07:00 +19°C° 0 mm 2 mps 757 mmHg 47%
08:00 +20°C° 0 mm 3 mps 758 mmHg 44%
09:00 +22°C° 0 mm 3 mps 759 mmHg 41%
10:00 +25°C° 0 mm 3 mps 758 mmHg 36%
11:00 +27°C° 0 mm 4 mps 758 mmHg 31%
12:00 +29°C° 0 mm 4 mps 757 mmHg 26%
13:00 +29°C° 0 mm 4 mps 756 mmHg 25%
14:00 +30°C° 0 mm 4 mps 756 mmHg 23%
15:00 +30°C° 0 mm 4 mps 755 mmHg 22%
16:00 +28°C° 0 mm 3 mps 755 mmHg 25%
17:00 +26°C° 0 mm 2 mps 755 mmHg 28%
18:00 +24°C° 0 mm 1 mps 755 mmHg 31%
19:00 +23°C° 0 mm 1 mps 755 mmHg 33%
20:00 +22°C° 0 mm 1 mps 755 mmHg 34%
21:00 +22°C° 0 mm 1 mps 756 mmHg 35%
22:00 +21°C° 0 mm 1 mps 756 mmHg 36%
23:00 +20°C° 0 mm 2 mps 756 mmHg 38%

Day after tomorrow, 30 November, Monday

Time Temperature Precipitation Wind Pressure Humidity
00:00 +19°C° 0 mm 2 mps 756 mmHg 39%
01:00 +19°C° 0 mm 2 mps 755 mmHg 40%
02:00 +18°C° 0 mm 2 mps 755 mmHg 41%
03:00 +18°C° 0 mm 2 mps 755 mmHg 42%
04:00 +17°C° 0 mm 2 mps 755 mmHg 43%
05:00 +17°C° 0 mm 2 mps 755 mmHg 45%
06:00 +16°C° 0 mm 1 mps 755 mmHg 46%
07:00 +18°C° 0 mm 2 mps 756 mmHg 43%
08:00 +20°C° 0 mm 2 mps 757 mmHg 40%
09:00 +21°C° 0 mm 2 mps 757 mmHg 37%
10:00 +24°C° 0 mm 2 mps 757 mmHg 34%
11:00 +26°C° 0 mm 2 mps 757 mmHg 31%
12:00 +28°C° 0 mm 2 mps 757 mmHg 27%
13:00 +29°C° 0 mm 2 mps 756 mmHg 27%
14:00 +29°C° 0 mm 2 mps 755 mmHg 26%
15:00 +29°C° 0 mm 2 mps 754 mmHg 25%
16:00 +28°C° 0 mm 2 mps 755 mmHg 28%
17:00 +26°C° 0 mm 1 mps 755 mmHg 31%
18:00 +24°C° 0 mm 1 mps 755 mmHg 34%
19:00 +23°C° 0 mm 1 mps 755 mmHg 35%
20:00 +23°C° 0 mm 2 mps 756 mmHg 36%
21:00 +21°C° 0 mm 2 mps 756 mmHg 36%
22:00 +20°C° 0 mm 2 mps 756 mmHg 37%
23:00 +21°C° 0 mm 1 mps 756 mmHg 37%

1 December, Tuesday

Time Temperature Precipitation Wind Pressure Humidity
00:00 +21°C° 0 mm 1 mps 756 mmHg 38%
01:00 +20°C° 0 mm 1 mps 756 mmHg 39%
02:00 +20°C° 0 mm 1 mps 756 mmHg 40%
03:00 +19°C° 0 mm 1 mps 756 mmHg 41%
04:00 +19°C° 0 mm 1 mps 756 mmHg 42%
05:00 +18°C° 0 mm 1 mps 756 mmHg 42%
06:00 +18°C° 0 mm 1 mps 756 mmHg 43%
07:00 +20°C° 0 mm 1 mps 757 mmHg 41%
08:00 +21°C° 0 mm 1 mps 758 mmHg 38%
09:00 +23°C° 0 mm 1 mps 758 mmHg 35%
10:00 +25°C° 0 mm 2 mps 758 mmHg 33%
11:00 +26°C° 0 mm 2 mps 757 mmHg 30%
12:00 +28°C° 0 mm 2 mps 757 mmHg 28%
13:00 +29°C° 0 mm 2 mps 756 mmHg 28%
14:00 +29°C° 0 mm 2 mps 755 mmHg 28%
15:00 +29°C° 0 mm 1 mps 755 mmHg 29%
16:00 +28°C° 0 mm 1 mps 755 mmHg 32%
17:00 +26°C° 0 mm 1 mps 755 mmHg 36%
18:00 +24°C° 0 mm 1 mps 755 mmHg 39%
19:00 +24°C° 0 mm 1 mps 755 mmHg 40%
20:00 +23°C° 0 mm 1 mps 755 mmHg 40%
21:00 +23°C° 0 mm 1 mps 756 mmHg 41%
22:00 +22°C° 0 mm 1 mps 756 mmHg 41%
23:00 +22°C° 0 mm 1 mps 755 mmHg 42%

2 December, Wednesday

Time Temperature Precipitation Wind Pressure Humidity
00:00 +21°C° 0 mm 1 mps 755 mmHg 42%
01:00 +21°C° 0 mm 1 mps 755 mmHg 42%
02:00 +20°C° 0 mm 1 mps 755 mmHg 43%
03:00 +20°C° 0 mm 1 mps 754 mmHg 43%
04:00 +19°C° 0 mm 1 mps 755 mmHg 43%
05:00 +19°C° 0 mm 1 mps 755 mmHg 43%
06:00 +18°C° 0 mm 1 mps 755 mmHg 43%
07:00 +20°C° 0 mm 1 mps 755 mmHg 40%
08:00 +22°C° 0 mm 1 mps 756 mmHg 37%
09:00 +23°C° 0 mm 1 mps 756 mmHg 34%
10:00 +25°C° 0 mm 1 mps 756 mmHg 31%
11:00 +27°C° 0 mm 1 mps 756 mmHg 28%
12:00 +28°C° 0 mm 2 mps 755 mmHg 26%
13:00 +29°C° 0 mm 2 mps 755 mmHg 25%
14:00 +29°C° 0 mm 2 mps 754 mmHg 24%
15:00 +30°C° 0 mm 2 mps 753 mmHg 23%
16:00 +28°C° 0 mm 2 mps 753 mmHg 27%
17:00 +26°C° 0 mm 2 mps 753 mmHg 30%
18:00 +24°C° 0 mm 2 mps 753 mmHg 33%
19:00 +23°C° 0 mm 1 mps 753 mmHg 34%
20:00 +23°C° 0 mm 1 mps 754 mmHg 36%
21:00 +22°C° 0 mm 1 mps 754 mmHg 37%
22:00 +22°C° 0 mm 1 mps 754 mmHg 38%
23:00 +21°C° 0 mm 1 mps 754 mmHg 39%

3 December, Thursday

Time Temperature Precipitation Wind Pressure Humidity
00:00 +21°C° 0 mm 1 mps 754 mmHg 40%
01:00 +20°C° 0 mm 1 mps 754 mmHg 41%
02:00 +20°C° 0 mm 1 mps 753 mmHg 43%
03:00 +19°C° 0 mm 1 mps 753 mmHg 44%
04:00 +19°C° 0 mm 1 mps 753 mmHg 45%
05:00 +16°C° 0 mm 0 mps 754 mmHg 46%
06:00 +16°C° 0 mm 0 mps 754 mmHg 47%
07:00 +18°C° 0 mm 0 mps 755 mmHg 44%
08:00 +20°C° 0 mm 0 mps 755 mmHg 40%
09:00 +21°C° 0 mm 0 mps 756 mmHg 37%
10:00 +23°C° 0 mm 0 mps 756 mmHg 34%
11:00 +27°C° 0 mm 1 mps 755 mmHg 30%
12:00 +29°C° 0 mm 1 mps 755 mmHg 27%
13:00 +29°C° 0 mm 1 mps 754 mmHg 26%
14:00 +29°C° 0 mm 1 mps 754 mmHg 25%
15:00 +29°C° 0 mm 2 mps 753 mmHg 24%
16:00 +27°C° 0 mm 2 mps 753 mmHg 27%
17:00 +26°C° 0 mm 2 mps 753 mmHg 30%
18:00 +24°C° 0 mm 1 mps 753 mmHg 34%
19:00 +23°C° 0 mm 1 mps 754 mmHg 35%
20:00 +23°C° 0 mm 1 mps 754 mmHg 37%
21:00 +20°C° 0 mm 0 mps 755 mmHg 38%
22:00 +19°C° 0 mm 0 mps 755 mmHg 39%
23:00 +19°C° 0 mm 0 mps 755 mmHg 40%
Show more

We Need Your Consent

Meteoprog and our Service Providers may store and access personal data such as cookies, device identifiers or other similar technologies on your device and process such data to personalise content and ads, as well as provide social media features and to analyse the traffic.

  • Store and/or access information on your device

    Cookies, device identifiers or other information can be stored or accessed on your device for the purposes indicated above.

  • Personalised ads and content, ad and content measurement, audience insights, and products development

    Ads and content can be personalised based on a profile. More data can be added to better personalise ads and content. Ad and content performance can be measured. Insights about the audience who saw the ads and content can be derived. Such data can be used to develop or improve user’s experience, systems and software.

By clicking ‘I Agree’ you will allow the use of indicated cookies, device identifiers, web beacons or other similar technologies. Your settings can be changed in the browser on your device.

For certain purposes, legitimate interests may be relied on, rather than consent. You can read more about this in our Privacy and Cookie Policy.